Nebraska City, NE

4:38 PM CDT on October 15, 2019 (GMT -0500)
Nebraska City Municipal

Weather History for KAFK - September, 2019

Change the Weather History Date:

Monday, September 16, 2019

  Actual Average (KSDA) Record (KSDA)
Temperature  
Mean Temperature 79 °F -  
Max Temperature 91 °F 75 °F 93 °F (1955)
Min Temperature 68 °F 51 °F 34 °F (1993)
Cooling Degree Days 14    
Growing Degree Days 29 (Base 50)    
Moisture  
Dew Point 72 °F    
Average Humidity 81    
Maximum Humidity 100    
Minimum Humidity 48    
Precipitation  
Precipitation 0.00 in - - ()
Sea Level Pressure  
Sea Level Pressure 30.02 in    
Wind  
Wind Speed 7 mph (South)    
Max Wind Speed 15 mph    
Max Gust Speed 18 mph    
Visibility 8 miles    
Events      
Averages and records for this station are not official NWS values.
T = Trace of Precipitation, MM = Missing Value Source: NWS Daily Summary

Daily Weather History Graph

Daily Weather History Graph

Search for Another Location

Airport or City:

Astronomy

Sep. 16, 2019 Rise Set
Actual Time 7:04 AM CDT 7:31 PM CDT
Civil Twilight 6:37 AM CDT 7:58 PM CDT
Nautical Twilight 6:05 AM CDT 8:30 PM CDT
Astronomical Twilight 5:32 AM CDT 9:03 PM CDT
Moon 9:05 PM CDT (9/16) 9:13 AM CDT (9/16)
Length of Visible Light 13h 20m
Length of Day
12h 26m
Waning Gibbous, 94% of the Moon is Illuminated
Sep 16
Waning Gibbous
Sep 21
Last Quarter
Sep 28
New
Oct 5
First Quarter
Oct 13
Full

Hourly Weather History & Observations

Time (CDT) Temp. Heat Index Dew Point Humidity Pressure Visibility Wind Dir Wind Speed Gust Speed Precip Events Conditions
12:15 AM 73.4 °F - 73.4 °F 100% 30.01 in 10.0 mi South 4.6 mph - N/A   Clear
12:35 AM 73.2 °F - 73.2 °F 100% 30.01 in 7.0 mi South 4.6 mph - N/A   Clear
12:55 AM 73.2 °F - 72.9 °F 99% 30.01 in 7.0 mi South 4.6 mph - N/A   Clear
1:15 AM 72.5 °F - 72.5 °F 100% 30.01 in 5.0 mi South 4.6 mph - N/A   Clear
1:55 AM 71.1 °F - 71.1 °F 100% 30.01 in 5.0 mi South 4.6 mph - N/A   Clear
2:15 AM 70.9 °F - 70.9 °F 100% 30.01 in 5.0 mi SSW 5.8 mph - N/A   Clear
2:35 AM 70.9 °F - 70.9 °F 100% 30.02 in 7.0 mi SSW 6.9 mph - N/A   Clear
2:55 AM 71.6 °F - 71.2 °F 99% 30.02 in 7.0 mi SSW 8.1 mph - N/A   Clear
3:15 AM 72.3 °F - 71.1 °F 96% 30.01 in 10.0 mi SW 6.9 mph - N/A   Clear
3:35 AM 72.9 °F - 70.7 °F 93% 30.01 in 10.0 mi SW 8.1 mph - N/A   Clear
3:55 AM 73.2 °F - 70.3 °F 91% 30.02 in 10.0 mi SW 9.2 mph - N/A   Clear
4:15 AM 72.9 °F - 70.0 °F 91% 30.02 in 10.0 mi SW 9.2 mph - N/A   Clear
4:35 AM 72.1 °F - 69.8 °F 92% 30.02 in 10.0 mi SW 8.1 mph - N/A   Clear
4:55 AM 71.2 °F - 69.8 °F 95% 30.02 in 7.0 mi SSW 6.9 mph - N/A   Clear
5:15 AM 70.3 °F - 69.3 °F 96% 30.02 in 7.0 mi SSW 8.1 mph - N/A   Clear
5:35 AM 70.5 °F - 69.1 °F 95% 30.03 in 7.0 mi SSW 6.9 mph - N/A   Clear
5:55 AM 70.3 °F - 69.1 °F 96% 30.03 in 5.0 mi SSW 6.9 mph - N/A   Clear
6:15 AM 69.6 °F - 68.9 °F 98% 30.03 in 5.0 mi SSW 6.9 mph - N/A   Clear
6:35 AM 68.2 °F - 68.2 °F 100% 30.04 in 3.0 mi SSW 6.9 mph - N/A   Clear
6:55 AM 68.7 °F - 68.7 °F 100% 30.04 in 5.0 mi SSW 6.9 mph - N/A   Clear
7:15 AM 68.7 °F - 68.4 °F 99% 30.05 in 2.5 mi SSW 6.9 mph - N/A   Clear
7:35 AM 68.9 °F - 68.9 °F 100% 30.05 in 3.0 mi SSW 6.9 mph - N/A   Clear
7:55 AM 70.0 °F - 69.8 °F 99% 30.06 in 3.0 mi SSW 6.9 mph - N/A   Scattered Clouds
8:15 AM 71.4 °F - 70.2 °F 96% 30.06 in 3.0 mi SSW 8.1 mph - N/A   Clear
8:35 AM 73.4 °F - 71.1 °F 92% 30.07 in 3.0 mi SSW 8.1 mph - N/A   Clear
8:55 AM 75.2 °F - 71.1 °F 87% 30.07 in 3.0 mi SSW 8.1 mph - N/A   Clear
9:15 AM 75.7 °F - 71.1 °F 85% 30.06 in 5.0 mi SSW 9.2 mph - N/A   Haze
9:35 AM 78.4 °F - 71.2 °F 78% 30.07 in 7.0 mi SW 11.5 mph - N/A   Clear
9:55 AM 78.8 °F - 71.6 °F 78% 30.07 in 5.0 mi SSW 8.1 mph - N/A   Haze
10:15 AM 79.7 °F - 72.0 °F 77% 30.07 in 5.0 mi SSW 8.1 mph - N/A   Haze
10:35 AM 80.4 °F 84.7 °F 72.5 °F 77% 30.07 in 3.0 mi SSW 8.1 mph - N/A   Haze
10:55 AM 82.8 °F 87.9 °F 72.1 °F 70% 30.07 in 3.0 mi SSW 8.1 mph - N/A   Haze
11:15 AM 83.1 °F 88.6 °F 72.5 °F 70% 30.06 in 2.5 mi SSW 8.1 mph - N/A   Haze
11:35 AM 85.1 °F 91.1 °F 72.3 °F 65% 30.06 in 7.0 mi SW 10.4 mph - N/A   Clear
11:55 AM 87.1 °F 93.6 °F 72.0 °F 61% 30.05 in 10.0 mi SSW 9.2 mph - N/A   Clear
12:15 PM 87.6 °F 92.7 °F 70.3 °F 56% 30.05 in 10.0 mi SW 12.7 mph 16.1 mph N/A   Clear
12:35 PM 87.8 °F 93.0 °F 70.5 °F 56% 30.04 in 10.0 mi SSW 12.7 mph - N/A   Clear
12:55 PM 87.6 °F 92.7 °F 70.3 °F 56% 30.04 in 10.0 mi SSW 11.5 mph - N/A   Clear
1:15 PM 88.3 °F 94.5 °F 71.2 °F 57% 30.04 in 10.0 mi SSW 11.5 mph - N/A   Clear
1:35 PM 88.2 °F 93.3 °F 70.3 °F 55% 30.03 in 10.0 mi SSW 10.4 mph - N/A   Clear
2:15 PM 90.9 °F 95.3 °F 68.9 °F 48% 30.01 in 10.0 mi SSW 15.0 mph 18.4 mph N/A   Clear
2:35 PM 90.9 °F 95.8 °F 69.4 °F 49% 30.01 in 10.0 mi SSW 12.7 mph 18.4 mph N/A   Clear
2:55 PM 89.8 °F 94.6 °F 69.6 °F 51% 30.00 in 10.0 mi SSW 9.2 mph - N/A   Clear
3:15 PM 90.1 °F 94.0 °F 68.0 °F 48% 30.00 in 10.0 mi SSW 13.8 mph - N/A   Clear
3:35 PM 90.3 °F 94.7 °F 68.7 °F 49% 30.00 in 10.0 mi SSW 11.5 mph - N/A   Clear
3:55 PM 88.7 °F 93.5 °F 69.4 °F 53% 30.00 in 10.0 mi South 9.2 mph - N/A   Clear
4:15 PM 87.6 °F 93.1 °F 70.5 °F 57% 30.00 in 10.0 mi South 9.2 mph - N/A   Clear
4:35 PM 86.9 °F 93.7 °F 72.5 °F 62% 30.00 in 10.0 mi SSE 8.1 mph - N/A   Clear
4:55 PM 87.3 °F 95.3 °F 73.6 °F 64% 29.99 in 10.0 mi SSE 9.2 mph - N/A   Clear
5:15 PM 87.4 °F 95.3 °F 73.6 °F 63% 29.99 in 10.0 mi SSE 9.2 mph - N/A   Clear
5:35 PM 87.3 °F 94.0 °F 72.5 °F 61% 29.99 in 10.0 mi SSE 9.2 mph - N/A   Clear
5:55 PM 86.9 °F 95.0 °F 73.8 °F 65% 29.99 in 10.0 mi SSE 9.2 mph - N/A   Clear
6:15 PM 86.4 °F 94.2 °F 73.6 °F 66% 29.98 in 10.0 mi SSE 8.1 mph - N/A   Clear
6:35 PM 85.1 °F 92.9 °F 74.1 °F 70% 29.98 in 10.0 mi SE 6.9 mph - N/A   Clear
6:55 PM 84.6 °F 92.1 °F 74.3 °F 71% 29.98 in 10.0 mi SSE 8.1 mph - N/A   Clear
7:15 PM 82.9 °F 89.7 °F 74.5 °F 75% 29.99 in 10.0 mi SSE 8.1 mph - N/A   Clear
7:35 PM 81.5 °F 87.8 °F 75.2 °F 81% 29.99 in 10.0 mi SSE 5.8 mph - N/A   Clear
7:55 PM 80.6 °F 86.2 °F 75.2 °F 84% 29.99 in 10.0 mi SSE 6.9 mph - N/A   Clear
8:15 PM 79.9 °F - 74.7 °F 84% 29.99 in 10.0 mi SSE 6.9 mph - N/A   Clear
8:35 PM 79.7 °F - 74.7 °F 84% 29.99 in 10.0 mi SSE 8.1 mph - N/A   Clear
8:55 PM 78.8 °F - 74.7 °F 87% 29.99 in 10.0 mi SSE 8.1 mph - N/A   Clear
9:15 PM 78.8 °F - 74.7 °F 87% 29.99 in 10.0 mi SSE 6.9 mph - N/A   Clear
9:35 PM 78.3 °F - 74.7 °F 89% 29.99 in 10.0 mi SSE 8.1 mph - N/A   Clear
9:55 PM 77.9 °F - 74.3 °F 89% 29.99 in 10.0 mi SSE 8.1 mph - N/A   Clear
10:15 PM 77.9 °F - 74.1 °F 88% 30.00 in 10.0 mi South 9.2 mph - N/A   Clear
10:35 PM 77.0 °F - 73.8 °F 90% 30.00 in 10.0 mi South 8.1 mph - N/A   Clear
10:55 PM 77.2 °F - 73.8 °F 89% 30.00 in 10.0 mi South 9.2 mph - N/A   Clear
11:15 PM 76.3 °F - 73.6 °F 91% 30.01 in 10.0 mi South 6.9 mph - N/A   Clear
11:35 PM 76.1 °F - 73.6 °F 92% 30.00 in 10.0 mi South 5.8 mph - N/A   Clear
11:55 PM 75.7 °F - 73.6 °F 93% 30.00 in 10.0 mi South 6.9 mph - N/A   Clear